iso_date,Year,Hour,Min,DOY,POS_DOY,Lat,Lon,BP,Ts,Ta,has_bp,has_ts,has_ta,BuoyID,Buoy_Type,Buoy_Owner,Logistics,Hemisphere
2021-11-23T16:00:02Z,2021,16,0,327.6667,327.6667,69.195,-60.277,-999.0,-1.47,-999.0,no,yes,no,300234068345220,SVPGHI,AOML,UNKNOWN,North
2021-11-23T17:02:58Z,2021,17,3,327.7104,327.7104,69.197,-60.316,-999.0,-1.46,-999.0,no,yes,no,300234068345220,SVPGHI,AOML,UNKNOWN,North
2021-11-23T18:00:00Z,2021,18,0,327.75,327.75,69.201,-60.349,-999.0,-1.48,-999.0,no,yes,no,300234068345220,SVPGHI,AOML,UNKNOWN,North
2021-11-23T19:01:03Z,2021,19,1,327.7924,327.7924,69.208,-60.384,-999.0,-1.49,-999.0,no,yes,no,300234068345220,SVPGHI,AOML,UNKNOWN,North
2021-11-23T19:59:57Z,2021,20,0,327.8333,327.8333,69.22,-60.411,-999.0,-1.49,-999.0,no,yes,no,300234068345220,SVPGHI,AOML,UNKNOWN,North
2021-11-23T21:02:00Z,2021,21,2,327.8764,327.8764,69.231,-60.433,-999.0,-1.49,-999.0,no,yes,no,300234068345220,SVPGHI,AOML,UNKNOWN,North
2021-11-23T22:03:56Z,2021,22,4,327.9194,327.9194,69.245,-60.444,-999.0,-1.49,-999.0,no,yes,no,300234068345220,SVPGHI,AOML,UNKNOWN,North
2021-11-23T22:59:57Z,2021,23,0,327.9583,327.9583,69.254,-60.439,-999.0,-1.48,-999.0,no,yes,no,300234068345220,SVPGHI,AOML,UNKNOWN,North
2021-11-24T00:00:00Z,2021,0,0,328.0,328.0,69.262,-60.426,-999.0,-1.48,-999.0,no,yes,no,300234068345220,SVPGHI,AOML,UNKNOWN,North
2021-11-24T01:00:02Z,2021,1,0,328.0417,328.0417,69.268,-60.412,-999.0,-1.54,-999.0,no,yes,no,300234068345220,SVPGHI,AOML,UNKNOWN,North
2021-11-24T01:59:57Z,2021,2,0,328.0833,328.0833,69.272,-60.407,-999.0,-1.57,-999.0,no,yes,no,300234068345220,SVPGHI,AOML,UNKNOWN,North
2021-11-24T03:00:00Z,2021,3,0,328.125,328.125,69.277,-60.412,-999.0,-1.6,-999.0,no,yes,no,300234068345220,SVPGHI,AOML,UNKNOWN,North
2021-11-24T04:00:02Z,2021,4,0,328.1667,328.1667,69.282,-60.423,-999.0,-1.61,-999.0,no,yes,no,300234068345220,SVPGHI,AOML,UNKNOWN,North
2021-11-24T04:59:57Z,2021,5,0,328.2083,328.2083,69.29,-60.44,-999.0,-1.61,-999.0,no,yes,no,300234068345220,SVPGHI,AOML,UNKNOWN,North
2021-11-24T06:01:00Z,2021,6,1,328.2507,328.2507,69.304,-60.45,-999.0,-1.61,-999.0,no,yes,no,300234068345220,SVPGHI,AOML,UNKNOWN,North
2021-11-24T07:03:04Z,2021,7,3,328.2938,328.2938,69.307,-60.464,-999.0,-1.58,-999.0,no,yes,no,300234068345220,SVPGHI,AOML,UNKNOWN,North
2021-11-24T09:00:00Z,2021,9,0,328.375,328.375,69.334,-60.467,-999.0,-1.55,-999.0,no,yes,no,300234068345220,SVPGHI,AOML,UNKNOWN,North
2021-11-24T10:00:02Z,2021,10,0,328.4167,328.4167,69.343,-60.443,-999.0,-1.52,-999.0,no,yes,no,300234068345220,SVPGHI,AOML,UNKNOWN,North
2021-11-24T12:02:00Z,2021,12,2,328.5014,328.5014,69.353,-60.37,-999.0,-1.52,-999.0,no,yes,no,300234068345220,SVPGHI,AOML,UNKNOWN,North
2021-11-24T13:00:02Z,2021,13,0,328.5417,328.5417,69.353,-60.341,-999.0,-1.53,-999.0,no,yes,no,300234068345220,SVPGHI,AOML,UNKNOWN,North
2021-11-24T13:59:57Z,2021,14,0,328.5833,328.5833,69.349,-60.32,-999.0,-1.54,-999.0,no,yes,no,300234068345220,SVPGHI,AOML,UNKNOWN,North
2021-11-24T15:01:00Z,2021,15,1,328.6257,328.6257,69.343,-60.31,-999.0,-1.56,-999.0,no,yes,no,300234068345220,SVPGHI,AOML,UNKNOWN,North
2021-11-24T16:00:02Z,2021,16,0,328.6667,328.6667,69.338,-60.312,-999.0,-1.57,-999.0,no,yes,no,300234068345220,SVPGHI,AOML,UNKNOWN,North
2021-11-24T16:59:57Z,2021,17,0,328.7083,328.7083,69.337,-60.319,-999.0,-1.6,-999.0,no,yes,no,300234068345220,SVPGHI,AOML,UNKNOWN,North
2021-11-24T18:04:01Z,2021,18,4,328.7528,328.7528,69.333,-60.323,-999.0,-1.68,-999.0,no,yes,no,300234068345220,SVPGHI,AOML,UNKNOWN,North
2021-11-24T20:03:59Z,2021,20,4,328.8361,328.8361,69.327,-60.349,-999.0,-1.72,-999.0,no,yes,no,300234068345220,SVPGHI,AOML,UNKNOWN,North
2021-11-24T21:03:01Z,2021,21,3,328.8771,328.8771,69.328,-60.369,-999.0,-1.73,-999.0,no,yes,no,300234068345220,SVPGHI,AOML,UNKNOWN,North
2021-11-24T22:00:02Z,2021,22,0,328.9167,328.9167,69.33,-60.378,-999.0,-1.84,-999.0,no,yes,no,300234068345220,SVPGHI,AOML,UNKNOWN,North
2021-11-24T22:59:57Z,2021,23,0,328.9583,328.9583,69.334,-60.377,-999.0,-1.89,-999.0,no,yes,no,300234068345220,SVPGHI,AOML,UNKNOWN,North
2021-11-25T00:00:00Z,2021,0,0,329.0,329.0,69.336,-60.369,-999.0,-1.89,-999.0,no,yes,no,300234068345220,SVPGHI,AOML,UNKNOWN,North
2021-11-25T01:00:02Z,2021,1,0,329.0417,329.0417,69.337,-60.355,-999.0,-1.88,-999.0,no,yes,no,300234068345220,SVPGHI,AOML,UNKNOWN,North
2021-11-25T02:00:57Z,2021,2,1,329.084,329.084,69.337,-60.34,-999.0,-1.87,-999.0,no,yes,no,300234068345220,SVPGHI,AOML,UNKNOWN,North
2021-11-25T03:00:00Z,2021,3,0,329.125,329.125,69.336,-60.325,-999.0,-1.86,-999.0,no,yes,no,300234068345220,SVPGHI,AOML,UNKNOWN,North
2021-11-25T04:00:02Z,2021,4,0,329.1667,329.1667,69.333,-60.315,-999.0,-1.83,-999.0,no,yes,no,300234068345220,SVPGHI,AOML,UNKNOWN,North
2021-11-25T04:59:57Z,2021,5,0,329.2083,329.2083,69.329,-60.314,-999.0,-1.8,-999.0,no,yes,no,300234068345220,SVPGHI,AOML,UNKNOWN,North
2021-11-25T06:00:00Z,2021,6,0,329.25,329.25,69.325,-60.324,-999.0,-1.78,-999.0,no,yes,no,300234068345220,SVPGHI,AOML,UNKNOWN,North
2021-11-25T07:00:02Z,2021,7,0,329.2917,329.2917,69.325,-60.34,-999.0,-1.78,-999.0,no,yes,no,300234068345220,SVPGHI,AOML,UNKNOWN,North
2021-11-25T07:59:57Z,2021,8,0,329.3333,329.3333,69.328,-60.361,-999.0,-1.75,-999.0,no,yes,no,300234068345220,SVPGHI,AOML,UNKNOWN,North
2021-11-25T09:00:00Z,2021,9,0,329.375,329.375,69.333,-60.374,-999.0,-1.76,-999.0,no,yes,no,300234068345220,SVPGHI,AOML,UNKNOWN,North
2021-11-25T10:00:02Z,2021,10,0,329.4167,329.4167,69.34,-60.376,-999.0,-1.76,-999.0,no,yes,no,300234068345220,SVPGHI,AOML,UNKNOWN,North
2021-11-25T12:00:00Z,2021,12,0,329.5,329.5,69.353,-60.349,-999.0,-1.74,-999.0,no,yes,no,300234068345220,SVPGHI,AOML,UNKNOWN,North
2021-11-25T13:00:02Z,2021,13,0,329.5417,329.5417,69.354,-60.33,-999.0,-1.8,-999.0,no,yes,no,300234068345220,SVPGHI,AOML,UNKNOWN,North
2021-11-25T14:00:57Z,2021,14,1,329.584,329.584,69.354,-60.315,-999.0,-1.8,-999.0,no,yes,no,300234068345220,SVPGHI,AOML,UNKNOWN,North
2021-11-25T15:00:00Z,2021,15,0,329.625,329.625,69.353,-60.303,-999.0,-1.78,-999.0,no,yes,no,300234068345220,SVPGHI,AOML,UNKNOWN,North
2021-11-25T18:00:00Z,2021,18,0,329.75,329.75,69.358,-60.316,-999.0,-1.72,-999.0,no,yes,no,300234068345220,SVPGHI,AOML,UNKNOWN,North
2021-11-25T19:00:02Z,2021,19,0,329.7917,329.7917,69.361,-60.325,-999.0,-1.71,-999.0,no,yes,no,300234068345220,SVPGHI,AOML,UNKNOWN,North
2021-11-25T19:59:57Z,2021,20,0,329.8333,329.8333,69.362,-60.33,-999.0,-1.71,-999.0,no,yes,no,300234068345220,SVPGHI,AOML,UNKNOWN,North
2021-11-25T21:00:00Z,2021,21,0,329.875,329.875,69.364,-60.334,-999.0,-1.71,-999.0,no,yes,no,300234068345220,SVPGHI,AOML,UNKNOWN,North
2021-11-25T22:00:02Z,2021,22,0,329.9167,329.9167,69.366,-60.332,-999.0,-1.72,-999.0,no,yes,no,300234068345220,SVPGHI,AOML,UNKNOWN,North
2021-11-25T22:59:57Z,2021,23,0,329.9583,329.9583,69.367,-60.33,-999.0,-1.72,-999.0,no,yes,no,300234068345220,SVPGHI,AOML,UNKNOWN,North
2021-11-26T00:00:00Z,2021,0,0,330.0,330.0,69.369,-60.323,-999.0,-1.73,-999.0,no,yes,no,300234068345220,SVPGHI,AOML,UNKNOWN,North
2021-11-26T01:00:02Z,2021,1,0,330.0417,330.0417,69.367,-60.315,-999.0,-1.73,-999.0,no,yes,no,300234068345220,SVPGHI,AOML,UNKNOWN,North
2021-11-26T01:59:57Z,2021,2,0,330.0833,330.0833,69.369,-60.301,-999.0,-1.74,-999.0,no,yes,no,300234068345220,SVPGHI,AOML,UNKNOWN,North
2021-11-26T03:00:00Z,2021,3,0,330.125,330.125,69.368,-60.287,-999.0,-1.74,-999.0,no,yes,no,300234068345220,SVPGHI,AOML,UNKNOWN,North
2021-11-26T04:00:02Z,2021,4,0,330.1667,330.1667,69.368,-60.276,-999.0,-1.74,-999.0,no,yes,no,300234068345220,SVPGHI,AOML,UNKNOWN,North
2021-11-26T04:59:57Z,2021,5,0,330.2083,330.2083,69.367,-60.265,-999.0,-1.74,-999.0,no,yes,no,300234068345220,SVPGHI,AOML,UNKNOWN,North
2021-11-26T06:00:00Z,2021,6,0,330.25,330.25,69.365,-60.263,-999.0,-1.74,-999.0,no,yes,no,300234068345220,SVPGHI,AOML,UNKNOWN,North
2021-11-26T07:00:02Z,2021,7,0,330.2917,330.2917,69.363,-60.269,-999.0,-1.75,-999.0,no,yes,no,300234068345220,SVPGHI,AOML,UNKNOWN,North
2021-11-26T07:59:57Z,2021,8,0,330.3333,330.3333,69.365,-60.279,-999.0,-1.78,-999.0,no,yes,no,300234068345220,SVPGHI,AOML,UNKNOWN,North
2021-11-26T09:00:00Z,2021,9,0,330.375,330.375,69.365,-60.288,-999.0,-1.82,-999.0,no,yes,no,300234068345220,SVPGHI,AOML,UNKNOWN,North
2021-11-26T10:00:02Z,2021,10,0,330.4167,330.4167,69.37,-60.293,-999.0,-1.86,-999.0,no,yes,no,300234068345220,SVPGHI,AOML,UNKNOWN,North
2021-11-26T13:00:02Z,2021,13,0,330.5417,330.5417,69.375,-60.282,-999.0,-1.84,-999.0,no,yes,no,300234068345220,SVPGHI,AOML,UNKNOWN,North
2021-11-26T13:59:57Z,2021,14,0,330.5833,330.5833,69.375,-60.276,-999.0,-1.81,-999.0,no,yes,no,300234068345220,SVPGHI,AOML,UNKNOWN,North
2021-11-26T15:00:00Z,2021,15,0,330.625,330.625,69.377,-60.276,-999.0,-1.8,-999.0,no,yes,no,300234068345220,SVPGHI,AOML,UNKNOWN,North
2021-11-26T16:00:02Z,2021,16,0,330.6667,330.6667,69.379,-60.275,-999.0,-1.78,-999.0,no,yes,no,300234068345220,SVPGHI,AOML,UNKNOWN,North
2021-11-26T16:59:57Z,2021,17,0,330.7083,330.7083,69.38,-60.286,-999.0,-1.78,-999.0,no,yes,no,300234068345220,SVPGHI,AOML,UNKNOWN,North
2021-11-26T18:00:00Z,2021,18,0,330.75,330.75,69.384,-60.282,-999.0,-1.78,-999.0,no,yes,no,300234068345220,SVPGHI,AOML,UNKNOWN,North
2021-11-26T19:00:02Z,2021,19,0,330.7917,330.7917,69.386,-60.286,-999.0,-1.79,-999.0,no,yes,no,300234068345220,SVPGHI,AOML,UNKNOWN,North
2021-11-26T19:59:57Z,2021,20,0,330.8333,330.8333,69.386,-60.293,-999.0,-1.8,-999.0,no,yes,no,300234068345220,SVPGHI,AOML,UNKNOWN,North
2021-11-26T21:00:00Z,2021,21,0,330.875,330.875,69.386,-60.298,-999.0,-1.78,-999.0,no,yes,no,300234068345220,SVPGHI,AOML,UNKNOWN,North
2021-11-26T22:00:02Z,2021,22,0,330.9167,330.9167,69.384,-60.297,-999.0,-1.78,-999.0,no,yes,no,300234068345220,SVPGHI,AOML,UNKNOWN,North
2021-11-26T22:59:57Z,2021,23,0,330.9583,330.9583,69.383,-60.302,-999.0,-1.81,-999.0,no,yes,no,300234068345220,SVPGHI,AOML,UNKNOWN,North
2021-11-27T00:00:00Z,2021,0,0,331.0,331.0,69.382,-60.301,-999.0,-1.79,-999.0,no,yes,no,300234068345220,SVPGHI,AOML,UNKNOWN,North
2021-11-27T01:00:02Z,2021,1,0,331.0417,331.0417,69.381,-60.299,-999.0,-1.81,-999.0,no,yes,no,300234068345220,SVPGHI,AOML,UNKNOWN,North
2021-11-27T01:59:57Z,2021,2,0,331.0833,331.0833,69.383,-60.29,-999.0,-1.81,-999.0,no,yes,no,300234068345220,SVPGHI,AOML,UNKNOWN,North
2021-11-27T03:00:00Z,2021,3,0,331.125,331.125,69.385,-60.275,-999.0,-1.81,-999.0,no,yes,no,300234068345220,SVPGHI,AOML,UNKNOWN,North
2021-11-27T04:00:02Z,2021,4,0,331.1667,331.1667,69.385,-60.257,-999.0,-1.8,-999.0,no,yes,no,300234068345220,SVPGHI,AOML,UNKNOWN,North
2021-11-27T04:59:57Z,2021,5,0,331.2083,331.2083,69.385,-60.242,-999.0,-1.82,-999.0,no,yes,no,300234068345220,SVPGHI,AOML,UNKNOWN,North
2021-11-27T06:00:00Z,2021,6,0,331.25,331.25,69.381,-60.225,-999.0,-1.84,-999.0,no,yes,no,300234068345220,SVPGHI,AOML,UNKNOWN,North
2021-11-27T07:00:02Z,2021,7,0,331.2917,331.2917,69.38,-60.219,-999.0,-1.84,-999.0,no,yes,no,300234068345220,SVPGHI,AOML,UNKNOWN,North
2021-11-27T07:59:57Z,2021,8,0,331.3333,331.3333,69.375,-60.219,-999.0,-1.86,-999.0,no,yes,no,300234068345220,SVPGHI,AOML,UNKNOWN,North
2021-11-27T09:00:00Z,2021,9,0,331.375,331.375,69.372,-60.226,-999.0,-1.87,-999.0,no,yes,no,300234068345220,SVPGHI,AOML,UNKNOWN,North
2021-11-27T10:00:02Z,2021,10,0,331.4167,331.4167,69.37,-60.238,-999.0,-1.86,-999.0,no,yes,no,300234068345220,SVPGHI,AOML,UNKNOWN,North
2021-11-27T10:59:57Z,2021,11,0,331.4583,331.4583,69.37,-60.25,-999.0,-1.87,-999.0,no,yes,no,300234068345220,SVPGHI,AOML,UNKNOWN,North
2021-11-27T13:00:02Z,2021,13,0,331.5417,331.5417,69.37,-60.26,-999.0,-1.87,-999.0,no,yes,no,300234068345220,SVPGHI,AOML,UNKNOWN,North
2021-11-27T13:59:57Z,2021,14,0,331.5833,331.5833,69.368,-60.259,-999.0,-1.87,-999.0,no,yes,no,300234068345220,SVPGHI,AOML,UNKNOWN,North
2021-11-27T15:00:00Z,2021,15,0,331.625,331.625,69.365,-60.257,-999.0,-1.86,-999.0,no,yes,no,300234068345220,SVPGHI,AOML,UNKNOWN,North
2021-11-27T16:00:02Z,2021,16,0,331.6667,331.6667,69.364,-60.254,-999.0,-1.87,-999.0,no,yes,no,300234068345220,SVPGHI,AOML,UNKNOWN,North
2021-11-27T16:59:57Z,2021,17,0,331.7083,331.7083,69.361,-60.268,-999.0,-1.86,-999.0,no,yes,no,300234068345220,SVPGHI,AOML,UNKNOWN,North
2021-11-27T18:00:00Z,2021,18,0,331.75,331.75,69.361,-60.265,-999.0,-1.86,-999.0,no,yes,no,300234068345220,SVPGHI,AOML,UNKNOWN,North
2021-11-27T19:00:02Z,2021,19,0,331.7917,331.7917,69.355,-60.278,-999.0,-1.86,-999.0,no,yes,no,300234068345220,SVPGHI,AOML,UNKNOWN,North
2021-11-27T19:59:57Z,2021,20,0,331.8333,331.8333,69.347,-60.299,-999.0,-1.86,-999.0,no,yes,no,300234068345220,SVPGHI,AOML,UNKNOWN,North
2021-11-27T21:00:00Z,2021,21,0,331.875,331.875,69.336,-60.323,-999.0,-1.83,-999.0,no,yes,no,300234068345220,SVPGHI,AOML,UNKNOWN,North
2021-11-27T22:00:02Z,2021,22,0,331.9167,331.9167,69.333,-60.339,-999.0,-1.78,-999.0,no,yes,no,300234068345220,SVPGHI,AOML,UNKNOWN,North
2021-11-27T22:59:57Z,2021,23,0,331.9583,331.9583,69.328,-60.355,-999.0,-1.9,-999.0,no,yes,no,300234068345220,SVPGHI,AOML,UNKNOWN,North
2021-11-28T00:00:00Z,2021,0,0,332.0,332.0,69.319,-60.372,-999.0,-1.83,-999.0,no,yes,no,300234068345220,SVPGHI,AOML,UNKNOWN,North
2021-11-28T01:00:02Z,2021,1,0,332.0417,332.0417,69.315,-60.384,-999.0,-1.82,-999.0,no,yes,no,300234068345220,SVPGHI,AOML,UNKNOWN,North
2021-11-28T01:59:57Z,2021,2,0,332.0833,332.0833,69.311,-60.39,-999.0,-1.9,-999.0,no,yes,no,300234068345220,SVPGHI,AOML,UNKNOWN,North
2021-11-28T03:00:00Z,2021,3,0,332.125,332.125,69.309,-60.394,-999.0,-1.76,-999.0,no,yes,no,300234068345220,SVPGHI,AOML,UNKNOWN,North
2021-11-28T04:00:02Z,2021,4,0,332.1667,332.1667,69.305,-60.395,-999.0,-1.89,-999.0,no,yes,no,300234068345220,SVPGHI,AOML,UNKNOWN,North
2021-11-28T05:00:57Z,2021,5,1,332.209,332.209,69.304,-60.394,-999.0,-1.78,-999.0,no,yes,no,300234068345220,SVPGHI,AOML,UNKNOWN,North
2021-11-28T06:00:00Z,2021,6,0,332.25,332.25,69.303,-60.4,-999.0,-1.76,-999.0,no,yes,no,300234068345220,SVPGHI,AOML,UNKNOWN,North
2021-11-28T07:00:02Z,2021,7,0,332.2917,332.2917,69.3,-60.413,-999.0,-1.75,-999.0,no,yes,no,300234068345220,SVPGHI,AOML,UNKNOWN,North
2021-11-28T07:59:57Z,2021,8,0,332.3333,332.3333,69.3,-60.429,-999.0,-1.8,-999.0,no,yes,no,300234068345220,SVPGHI,AOML,UNKNOWN,North
2021-11-28T09:00:00Z,2021,9,0,332.375,332.375,69.296,-60.449,-999.0,-1.78,-999.0,no,yes,no,300234068345220,SVPGHI,AOML,UNKNOWN,North
2021-11-28T10:00:02Z,2021,10,0,332.4167,332.4167,69.294,-60.466,-999.0,-1.79,-999.0,no,yes,no,300234068345220,SVPGHI,AOML,UNKNOWN,North
2021-11-28T10:59:57Z,2021,11,0,332.4583,332.4583,69.292,-60.488,-999.0,-1.85,-999.0,no,yes,no,300234068345220,SVPGHI,AOML,UNKNOWN,North
2021-11-28T13:00:02Z,2021,13,0,332.5417,332.5417,69.281,-60.535,-999.0,-1.88,-999.0,no,yes,no,300234068345220,SVPGHI,AOML,UNKNOWN,North
2021-11-28T13:59:57Z,2021,14,0,332.5833,332.5833,69.277,-60.552,-999.0,-1.79,-999.0,no,yes,no,300234068345220,SVPGHI,AOML,UNKNOWN,North
2021-11-28T15:00:00Z,2021,15,0,332.625,332.625,69.273,-60.57,-999.0,-1.78,-999.0,no,yes,no,300234068345220,SVPGHI,AOML,UNKNOWN,North
2021-11-28T16:00:02Z,2021,16,0,332.6667,332.6667,69.266,-60.585,-999.0,-1.82,-999.0,no,yes,no,300234068345220,SVPGHI,AOML,UNKNOWN,North
2021-11-28T16:59:57Z,2021,17,0,332.7083,332.7083,69.26,-60.608,-999.0,-1.87,-999.0,no,yes,no,300234068345220,SVPGHI,AOML,UNKNOWN,North
2021-11-28T18:00:00Z,2021,18,0,332.75,332.75,69.257,-60.615,-999.0,-1.97,-999.0,no,yes,no,300234068345220,SVPGHI,AOML,UNKNOWN,North
2021-11-28T19:00:02Z,2021,19,0,332.7917,332.7917,69.25,-60.622,-999.0,-1.86,-999.0,no,yes,no,300234068345220,SVPGHI,AOML,UNKNOWN,North
2021-11-28T19:59:57Z,2021,20,0,332.8333,332.8333,69.242,-60.631,-999.0,-1.95,-999.0,no,yes,no,300234068345220,SVPGHI,AOML,UNKNOWN,North
2021-11-28T21:00:00Z,2021,21,0,332.875,332.875,69.232,-60.644,-999.0,-1.91,-999.0,no,yes,no,300234068345220,SVPGHI,AOML,UNKNOWN,North
2021-11-28T22:00:02Z,2021,22,0,332.9167,332.9167,69.221,-60.665,-999.0,-1.93,-999.0,no,yes,no,300234068345220,SVPGHI,AOML,UNKNOWN,North
2021-11-28T22:59:57Z,2021,23,0,332.9583,332.9583,69.207,-60.69,-999.0,-1.93,-999.0,no,yes,no,300234068345220,SVPGHI,AOML,UNKNOWN,North
2021-11-29T00:00:00Z,2021,0,0,333.0,333.0,69.19,-60.705,-999.0,-1.99,-999.0,no,yes,no,300234068345220,SVPGHI,AOML,UNKNOWN,North
2021-11-29T01:00:02Z,2021,1,0,333.0417,333.0417,69.181,-60.716,-999.0,-1.92,-999.0,no,yes,no,300234068345220,SVPGHI,AOML,UNKNOWN,North
2021-11-29T01:59:57Z,2021,2,0,333.0833,333.0833,69.168,-60.727,-999.0,-1.92,-999.0,no,yes,no,300234068345220,SVPGHI,AOML,UNKNOWN,North
2021-11-29T04:00:02Z,2021,4,0,333.1667,333.1667,69.143,-60.712,-999.0,-1.94,-999.0,no,yes,no,300234068345220,SVPGHI,AOML,UNKNOWN,North
2021-11-29T04:59:57Z,2021,5,0,333.2083,333.2083,69.127,-60.701,-999.0,-1.92,-999.0,no,yes,no,300234068345220,SVPGHI,AOML,UNKNOWN,North
2021-11-29T06:00:00Z,2021,6,0,333.25,333.25,69.112,-60.693,-999.0,-1.97,-999.0,no,yes,no,300234068345220,SVPGHI,AOML,UNKNOWN,North
2021-11-29T07:00:02Z,2021,7,0,333.2917,333.2917,69.093,-60.7,-999.0,-1.9,-999.0,no,yes,no,300234068345220,SVPGHI,AOML,UNKNOWN,North
2021-11-29T07:59:57Z,2021,8,0,333.3333,333.3333,69.076,-60.708,-999.0,-1.91,-999.0,no,yes,no,300234068345220,SVPGHI,AOML,UNKNOWN,North
2021-11-29T09:00:00Z,2021,9,0,333.375,333.375,69.059,-60.725,-999.0,-1.94,-999.0,no,yes,no,300234068345220,SVPGHI,AOML,UNKNOWN,North
2021-11-29T10:00:02Z,2021,10,0,333.4167,333.4167,69.044,-60.736,-999.0,-2.0,-999.0,no,yes,no,300234068345220,SVPGHI,AOML,UNKNOWN,North
2021-11-29T10:59:57Z,2021,11,0,333.4583,333.4583,69.03,-60.735,-999.0,-1.96,-999.0,no,yes,no,300234068345220,SVPGHI,AOML,UNKNOWN,North
2021-11-29T13:00:02Z,2021,13,0,333.5417,333.5417,69.018,-60.749,-999.0,-1.94,-999.0,no,yes,no,300234068345220,SVPGHI,AOML,UNKNOWN,North
2021-11-29T13:59:57Z,2021,14,0,333.5833,333.5833,69.014,-60.743,-999.0,-1.94,-999.0,no,yes,no,300234068345220,SVPGHI,AOML,UNKNOWN,North
2021-11-29T15:00:00Z,2021,15,0,333.625,333.625,69.011,-60.728,-999.0,-1.98,-999.0,no,yes,no,300234068345220,SVPGHI,AOML,UNKNOWN,North
2021-11-29T16:00:02Z,2021,16,0,333.6667,333.6667,69.007,-60.707,-999.0,-2.16,-999.0,no,yes,no,300234068345220,SVPGHI,AOML,UNKNOWN,North
2021-11-29T16:59:57Z,2021,17,0,333.7083,333.7083,69.001,-60.682,-999.0,-1.87,-999.0,no,yes,no,300234068345220,SVPGHI,AOML,UNKNOWN,North
2021-11-29T18:00:00Z,2021,18,0,333.75,333.75,68.995,-60.661,-999.0,-1.88,-999.0,no,yes,no,300234068345220,SVPGHI,AOML,UNKNOWN,North
2021-11-29T19:00:02Z,2021,19,0,333.7917,333.7917,68.988,-60.65,-999.0,-1.89,-999.0,no,yes,no,300234068345220,SVPGHI,AOML,UNKNOWN,North
2021-11-29T19:59:57Z,2021,20,0,333.8333,333.8333,68.983,-60.649,-999.0,-1.93,-999.0,no,yes,no,300234068345220,SVPGHI,AOML,UNKNOWN,North
2021-11-29T21:00:00Z,2021,21,0,333.875,333.875,68.979,-60.65,-999.0,-1.89,-999.0,no,yes,no,300234068345220,SVPGHI,AOML,UNKNOWN,North
2021-11-29T22:00:02Z,2021,22,0,333.9167,333.9167,68.978,-60.657,-999.0,-1.88,-999.0,no,yes,no,300234068345220,SVPGHI,AOML,UNKNOWN,North
2021-11-29T22:59:57Z,2021,23,0,333.9583,333.9583,68.979,-60.668,-999.0,-1.88,-999.0,no,yes,no,300234068345220,SVPGHI,AOML,UNKNOWN,North
2021-11-30T00:00:00Z,2021,0,0,334.0,334.0,68.981,-60.678,-999.0,-1.88,-999.0,no,yes,no,300234068345220,SVPGHI,AOML,UNKNOWN,North
2021-11-30T01:00:02Z,2021,1,0,334.0417,334.0417,68.983,-60.685,-999.0,-1.9,-999.0,no,yes,no,300234068345220,SVPGHI,AOML,UNKNOWN,North
2021-11-30T01:59:57Z,2021,2,0,334.0833,334.0833,68.986,-60.677,-999.0,-1.88,-999.0,no,yes,no,300234068345220,SVPGHI,AOML,UNKNOWN,North
2021-11-30T03:00:00Z,2021,3,0,334.125,334.125,68.989,-60.662,-999.0,-1.9,-999.0,no,yes,no,300234068345220,SVPGHI,AOML,UNKNOWN,North
2021-11-30T04:00:02Z,2021,4,0,334.1667,334.1667,68.988,-60.64,-999.0,-1.89,-999.0,no,yes,no,300234068345220,SVPGHI,AOML,UNKNOWN,North
2021-11-30T04:59:57Z,2021,5,0,334.2083,334.2083,68.984,-60.616,-999.0,-1.91,-999.0,no,yes,no,300234068345220,SVPGHI,AOML,UNKNOWN,North
2021-11-30T06:00:00Z,2021,6,0,334.25,334.25,68.978,-60.591,-999.0,-1.9,-999.0,no,yes,no,300234068345220,SVPGHI,AOML,UNKNOWN,North
2021-11-30T07:00:02Z,2021,7,0,334.2917,334.2917,68.969,-60.573,-999.0,-1.91,-999.0,no,yes,no,300234068345220,SVPGHI,AOML,UNKNOWN,North
2021-11-30T07:59:57Z,2021,8,0,334.3333,334.3333,68.959,-60.57,-999.0,-1.91,-999.0,no,yes,no,300234068345220,SVPGHI,AOML,UNKNOWN,North
2021-11-30T09:00:00Z,2021,9,0,334.375,334.375,68.952,-60.579,-999.0,-1.88,-999.0,no,yes,no,300234068345220,SVPGHI,AOML,UNKNOWN,North
2021-11-30T10:00:02Z,2021,10,0,334.4167,334.4167,68.949,-60.592,-999.0,-1.89,-999.0,no,yes,no,300234068345220,SVPGHI,AOML,UNKNOWN,North
2021-11-30T12:00:00Z,2021,12,0,334.5,334.5,68.949,-60.625,-999.0,-1.88,-999.0,no,yes,no,300234068345220,SVPGHI,AOML,UNKNOWN,North
2021-11-30T13:00:02Z,2021,13,0,334.5417,334.5417,68.953,-60.635,-999.0,-1.9,-999.0,no,yes,no,300234068345220,SVPGHI,AOML,UNKNOWN,North
2021-11-30T13:59:57Z,2021,14,0,334.5833,334.5833,68.954,-60.632,-999.0,-2.0,-999.0,no,yes,no,300234068345220,SVPGHI,AOML,UNKNOWN,North
2021-11-30T15:00:00Z,2021,15,0,334.625,334.625,68.957,-60.623,-999.0,-1.91,-999.0,no,yes,no,300234068345220,SVPGHI,AOML,UNKNOWN,North
2021-11-30T16:00:02Z,2021,16,0,334.6667,334.6667,68.959,-60.607,-999.0,-1.92,-999.0,no,yes,no,300234068345220,SVPGHI,AOML,UNKNOWN,North
2021-11-30T16:59:57Z,2021,17,0,334.7083,334.7083,68.958,-60.588,-999.0,-1.89,-999.0,no,yes,no,300234068345220,SVPGHI,AOML,UNKNOWN,North
2021-11-30T18:00:00Z,2021,18,0,334.75,334.75,68.957,-60.566,-999.0,-1.89,-999.0,no,yes,no,300234068345220,SVPGHI,AOML,UNKNOWN,North
2021-11-30T19:00:02Z,2021,19,0,334.7917,334.7917,68.954,-60.551,-999.0,-1.89,-999.0,no,yes,no,300234068345220,SVPGHI,AOML,UNKNOWN,North
2021-11-30T19:59:57Z,2021,20,0,334.8333,334.8333,68.948,-60.553,-999.0,-1.89,-999.0,no,yes,no,300234068345220,SVPGHI,AOML,UNKNOWN,North
2021-11-30T21:00:00Z,2021,21,0,334.875,334.875,68.942,-60.569,-999.0,-1.89,-999.0,no,yes,no,300234068345220,SVPGHI,AOML,UNKNOWN,North
2021-11-30T22:00:02Z,2021,22,0,334.9167,334.9167,68.938,-60.595,-999.0,-1.91,-999.0,no,yes,no,300234068345220,SVPGHI,AOML,UNKNOWN,North
2021-11-30T22:59:57Z,2021,23,0,334.9583,334.9583,68.936,-60.626,-999.0,-1.94,-999.0,no,yes,no,300234068345220,SVPGHI,AOML,UNKNOWN,North
2021-12-01T00:00:00Z,2021,0,0,335.0,335.0,68.937,-60.659,-999.0,-1.9,-999.0,no,yes,no,300234068345220,SVPGHI,AOML,UNKNOWN,North
2021-12-01T01:00:02Z,2021,1,0,335.0417,335.0417,68.943,-60.69,-999.0,-1.91,-999.0,no,yes,no,300234068345220,SVPGHI,AOML,UNKNOWN,North
2021-12-01T01:59:57Z,2021,2,0,335.0833,335.0833,68.953,-60.712,-999.0,-1.91,-999.0,no,yes,no,300234068345220,SVPGHI,AOML,UNKNOWN,North
2021-12-01T03:00:00Z,2021,3,0,335.125,335.125,68.964,-60.718,-999.0,-1.89,-999.0,no,yes,no,300234068345220,SVPGHI,AOML,UNKNOWN,North
2021-12-01T04:00:02Z,2021,4,0,335.1667,335.1667,68.974,-60.71,-999.0,-1.91,-999.0,no,yes,no,300234068345220,SVPGHI,AOML,UNKNOWN,North
2021-12-01T04:59:57Z,2021,5,0,335.2083,335.2083,68.982,-60.694,-999.0,-1.89,-999.0,no,yes,no,300234068345220,SVPGHI,AOML,UNKNOWN,North
2021-12-01T06:00:00Z,2021,6,0,335.25,335.25,68.985,-60.671,-999.0,-1.91,-999.0,no,yes,no,300234068345220,SVPGHI,AOML,UNKNOWN,North
2021-12-01T07:00:02Z,2021,7,0,335.2917,335.2917,68.985,-60.649,-999.0,-1.89,-999.0,no,yes,no,300234068345220,SVPGHI,AOML,UNKNOWN,North
2021-12-01T07:59:57Z,2021,8,0,335.3333,335.3333,68.983,-60.633,-999.0,-1.89,-999.0,no,yes,no,300234068345220,SVPGHI,AOML,UNKNOWN,North
2021-12-01T09:00:00Z,2021,9,0,335.375,335.375,68.979,-60.625,-999.0,-1.89,-999.0,no,yes,no,300234068345220,SVPGHI,AOML,UNKNOWN,North
2021-12-01T10:00:02Z,2021,10,0,335.4167,335.4167,68.973,-60.629,-999.0,-1.9,-999.0,no,yes,no,300234068345220,SVPGHI,AOML,UNKNOWN,North
2021-12-01T10:59:57Z,2021,11,0,335.4583,335.4583,68.968,-60.642,-999.0,-1.92,-999.0,no,yes,no,300234068345220,SVPGHI,AOML,UNKNOWN,North
2021-12-01T12:00:00Z,2021,12,0,335.5,335.5,68.964,-60.657,-999.0,-1.9,-999.0,no,yes,no,300234068345220,SVPGHI,AOML,UNKNOWN,North
2021-12-01T13:00:02Z,2021,13,0,335.5417,335.5417,68.961,-60.665,-999.0,-1.9,-999.0,no,yes,no,300234068345220,SVPGHI,AOML,UNKNOWN,North